#timestamp,LO_Frequency,Hit,StdDev 
1549281615.8,286047000.2,N
1549281635.7,286047002.6,N
1549281655.5,286047002.7,N
1549281675.3,286047002.7,N
1549281695.2,286047002.4,N
1549281715.0,286047002.3,N
1549281715.9,286047002.3,N
1549281735.8,286047000.6,N
1549281755.6,286047000.8,N
1549281775.4,286047001.0,N
1549281795.3,286047000.7,N
1549281815.1,286047000.7,N
1549281835.9,286047001.6,N
1549281855.7,286047002.1,N
1549281875.5,286047002.6,Y
1549281895.4,286046998.1,P
1549281915.2,286046998.2,N
1549281935.1,286047000.8,N
1549281936.0,286047000.8,N
1549281955.8,286046998.7,N
1549281975.6,286046998.9,N
1549281995.5,286046998.7,N
1549282015.3,286046998.1,N
1549282035.1,286046998.1,N
1549282055.9,286046998.2,N
1549282075.7,286047000.7,N
1549282095.6,286046998.4,N
1549282115.4,286047000.9,N
1549282135.2,286046998.6,N
1549282155.1,286046998.2,N
1549282156.0,286046998.2,N
1549282175.8,286046999.3,N
1549282195.7,286046998.4,N
1549282215.5,286046998.8,N
1549282235.3,286046998.6,N
1549282255.2,286047001.0,N
1549282275.9,286047001.1,N
1549282295.7,286046998.8,N
1549282315.6,286046998.4,N
1549282335.4,286046998.1,N
1549282355.2,286047000.9,N
1549282375.1,286047000.3,N
1549282376.0,286047000.3,N
1549282395.8,286047000.7,N
1549282415.7,286046998.3,N
1549282435.5,286046996.8,N
1549282455.3,286046999.1,N
1549282475.2,286046998.9,N
1549282495.0,286046998.4,N
1549282495.9,286046998.4,N
1549282515.8,286047000.7,N
1549282535.6,286047000.8,N
1549282555.4,286047000.8,N
1549282575.3,286047000.4,N
1549282595.1,286047000.8,N
1549282615.8,286047000.3,N
1549282665.7,286047000.3,E
1549282675.6,286047001.2,N
1549282695.5,286046998.1,P
1549282715.3,286047000.8,N
1549282735.1,286046998.6,N
1549282755.9,286046999.0,N
1549282775.7,286046997.0,N
1549282795.5,286046998.2,N
1549282815.4,286047002.2,N
1549282835.2,286047002.1,N
1549282855.1,286047001.0,N
1549282856.0,286047001.0,N
1549282875.8,286046998.5,N
1549282895.6,286046999.2,N
1549282915.5,286046998.3,N
1549282935.3,286046999.3,N
1549282955.1,286046997.0,N
1549282975.9,286046993.5,Y
1549282995.7,286046993.3,P
1549283015.6,286046994.6,N
1549283035.4,286046993.8,N
1549283055.2,286046992.1,Y
1549283075.1,286046997.1,P
1549283076.0,286046997.1,P
1549283095.8,286046996.8,P
1549283115.7,286046997.9,N
1549283135.5,286046993.4,Y
1549283155.3,286046999.1,P
1549283175.2,286046998.9,N
1549283195.0,286046999.0,N
1549283195.9,286046999.0,N
1549283215.8,286046997.3,Y
1549283235.6,286046996.6,P
1549283255.4,286046999.6,N
1549283275.3,286046998.8,N
1549283295.1,286047000.8,N
1549283315.8,286046998.6,N
1549283335.7,286046998.3,N
1549283355.5,286047000.8,N
1549283375.4,286047000.2,N
1549283395.2,286047000.7,N
1549283415.0,286047000.0,N
1549283415.9,286047000.0,N
1549283435.8,286047002.2,N
1549283455.6,286047000.0,N
1549283475.4,286047003.2,N
1549283495.3,286047005.9,Y
1549283515.1,286047003.5,P
1549283535.9,286047003.8,N
1549283555.7,286047005.7,P
1549283575.5,286047007.4,Y
1549283595.4,286047004.0,P
1549283615.2,286047002.3,P
1549283635.0,286047001.1,N
1549283635.9,286047001.1,N
1549283655.8,286047000.8,N
1549283675.6,286047001.2,N
1549283695.5,286047000.7,N
1549283715.3,286046999.1,N
1549283735.1,286046997.5,N
1549283755.9,286046995.1,N
1549283775.7,286046996.2,N
1549283795.5,286046993.8,N
1549283815.4,286046994.6,N
1549283835.2,286046993.9,N
1549283855.1,286046993.9,N
1549283856.0,286046993.9,N
1549283875.8,286046993.7,N
1549283895.6,286046993.9,N
1549283915.5,286046993.8,N
1549283935.3,286046993.9,N
1549283955.2,286046993.6,N
1549283975.9,286046994.2,N
1549283995.7,286046992.3,N
1549284015.6,286046994.5,N
1549284035.4,286046991.9,N
1549284055.2,286046994.3,N
1549284075.1,286046992.9,N
1549284076.0,286046992.9,N
1549284095.8,286046990.5,N
1549284115.7,286046991.3,N
1549284135.5,286046992.8,N
1549284155.3,286046992.2,N
1549284175.2,286046992.8,N
1549284195.0,286046991.2,Y
1549284195.9,286046991.2,P
1549284215.7,286046997.5,N
1549284235.6,286046997.2,N
1549284255.4,286046998.6,N
1549284275.3,286047000.5,N
1549284295.1,286047002.7,N
1549284296.0,286047002.7,N
1549284315.8,286047000.1,N
1549284335.7,286046998.3,N
1549284355.5,286046998.4,N
1549284375.3,286047000.5,N
1549284395.2,286046998.6,N
1549284415.0,286046998.3,N
1549284415.9,286046998.3,N
1549284435.8,286046999.5,N
1549284455.6,286047000.9,N
1549284475.4,286047001.1,N
1549284495.3,286047000.7,N
1549284515.1,286047001.2,N
1549284535.8,286046998.5,N
1549284555.7,286046998.5,N
1549284575.5,286046998.5,N
1549284595.4,286047001.2,N
1549284615.2,286047000.6,N
1549284635.0,286047000.3,N
1549284635.9,286047000.3,N
1549284655.8,286047004.4,N
1549284675.6,286046999.7,N
1549284695.4,286047001.1,N
1549284715.3,286047000.3,N
1549284735.1,286046998.6,N
1549284755.9,286046998.2,N
1549284775.7,286046998.3,N
1549284795.5,286046998.9,N
1549284815.4,286046999.5,N
1549284835.2,286046999.1,N
1549284855.9,286046998.3,N
1549284875.7,286046994.9,Y
1549284895.6,286046995.3,P
1549284915.4,286046993.9,N
1549284935.3,286046994.2,N
1549284955.1,286046996.3,N
1549284956.0,286046996.3,N
1549284975.8,286046993.3,Y
1549284995.7,286046998.6,P
1549285015.5,286046999.5,N
1549285035.4,286047000.1,N
1549285055.2,286047000.8,N
1549285075.0,286046998.5,N
1549285075.9,286046998.5,N
1549285095.8,286047001.1,N
1549285115.6,286047001.0,N
1549285135.4,286047000.4,N
1549285155.3,286047000.1,N
1549285175.1,286046998.1,N
1549285195.8,286047001.1,N
